Wind_Speed
27 27 27 27 26 26 26 26 26 26 26 27 27 28 28 28 28 29 30 30 32 32 34 35 35 36 36 37 37 38 38 38 39 40 40 40 40 39
25 26 26 26 26 25 25 26 26 26 26 27 27 28 29 29 29 29 30 30 30 31 33 34 35 36 36 37 37 37 38 38 39 40 41 41 40 40
24 25 25 25 25 24 25 25 25 26 26 26 27 28 28 28 29 29 30 30 30 31 32 33 34 34 35 36 37 36 37 38 39 40 41 42 41 41
24 24 24 25 25 25 25 26 26 26 27 27 26 26 27 28 28 29 29 30 30 30 31 31 32 33 34 35 36 36 36 36 37 39 40 41 42 42
24 24 24 24 24 25 26 26 26 26 26 26 26 26 26 26 26 27 27 28 28 29 30 30 31 32 33 33 34 35 35 35 35 37 38 39 40 41
24 24 24 24 24 26 26 26 26 26 26 26 26 26 26 26 26 26 26 27 28 28 28 29 30 31 31 32 32 33 33 33 34 35 36 37 38 40
23 24 24 24 24 25 25 25 25 26 26 26 25 26 26 27 27 27 26 26 27 27 27 28 29 29 30 31 32 33 33 33 34 35 35 35 35 36
23 23 23 24 25 25 25 25 25 25 25 25 25 26 26 26 26 26 26 26 27 27 28 28 29 30 31 31 30 31 32 34 34 35 34 34 34 35
23 24 25 26 26 25 25 25 25 25 25 25 26 25 25 25 26 26 26 26 26 27 28 28 28 29 30 31 30 30 30 31 32 32 32 33 34 34
24 25 26 27 26 27 26 26 26 26 27 27 27 26 26 26 26 25 25 25 26 26 27 28 29 29 29 29 30 30 31 31 31 31 32 32 32 33
25 26 26 26 26 27 26 26 26 27 28 28 28 27 27 26 26 26 25 24 24 25 26 26 28 28 29 29 29 30 31 31 31 32 32 32 32 33
27 27 27 27 27 27 26 26 27 27 28 27 27 26 26 25 25 25 25 25 25 25 26 27 27 28 28 28 29 30 30 31 32 32 33 32 32 33
28 28 28 28 27 27 26 26 26 26 25 24 24 24 24 24 24 24 24 23 24 25 26 27 28 28 28 28 28 29 30 31 32 32 33 33 33 33
29 28 28 27 27 27 25 24 24 24 24 23 23 22 22 23 23 22 22 22 22 23 25 26 26 27 28 27 27 28 29 30 31 31 32 32 32 33
28 28 27 26 26 26 25 23 23 22 22 21 21 21 21 20 20 21 21 21 22 22 23 23 25 26 26 27 27 28 28 29 30 31 31 32 32 33
28 28 26 25 25 24 23 23 22 22 21 20 21 20 19 18 19 19 19 20 20 20 21 22 23 24 25 26 27 28 29 28 29 30 30 31 31 32
28 27 26 25 24 23 22 22 21 21 21 20 19 19 19 20 20 19 19 20 20 21 21 21 22 23 24 25 26 28 29 29 29 30 31 31 31 32
28 27 26 25 24 22 21 21 21 21 21 20 20 19 19 19 19 19 18 19 19 21 21 21 22 23 25 26 26 27 29 30 30 30 30 31 31 32
28 27 26 25 24 23 22 21 21 21 21 21 20 19 18 18 17 17 18 18 19 19 21 22 23 24 24 24 25 27 28 29 30 30 30 30 31 31
27 26 25 25 26 25 23 23 22 22 21 20 19 19 18 18 18 18 18 18 19 19 20 21 22 23 24 24 25 26 27 28 30 30 30 30 31 31
28 27 27 26 27 26 24 24 23 23 22 21 20 19 18 18 18 18 18 18 19 19 19 20 22 23 24 25 25 25 27 28 29 30 31 31 31 32
29 28 28 27 27 27 25 24 24 23 23 22 21 20 19 18 18 17 18 18 19 19 20 20 21 22 23 23 24 24 25 27 28 28 29 30 31 31
30 29 29 28 28 27 26 26 26 25 24 23 22 20 20 19 18 17 17 17 17 17 18 18 19 20 21 22 22 23 24 24 26 27 28 29 29 30
Wind_Direction
294 294 293 291 291 289 287 285 284 282 279 278 277 277 275 273 271 270 267 264 259 255 252 251 249 247 246 245 245 245 244 241 237 237 237 237 236 236
296 294 292 290 291 290 288 286 285 283 281 279 278 278 275 274 273 271 268 266 262 258 255 252 250 248 246 244 243 245 244 243 239 237 236 236 236 236
297 296 295 292 292 291 290 289 286 284 284 281 281 280 277 275 274 272 268 266 264 260 256 254 252 249 246 244 243 244 244 244 241 238 236 235 236 237
299 298 295 293 291 289 290 289 287 287 286 284 284 282 279 277 275 272 268 265 263 260 257 254 251 248 246 243 243 242 243 243 240 238 237 236 235 235
300 299 296 295 294 294 292 290 289 288 288 287 286 285 283 280 278 273 269 266 262 258 255 252 249 246 243 242 242 242 242 242 240 238 237 237 235 233
300 299 298 297 297 296 293 291 289 288 288 288 286 285 284 282 280 275 272 267 264 259 255 250 247 244 242 241 242 243 242 240 239 237 237 237 236 234
304 302 300 298 300 298 295 293 291 289 287 287 286 285 284 281 280 276 272 268 264 259 254 249 246 244 244 244 243 243 242 240 239 238 237 236 235 233
306 305 303 301 302 299 296 295 293 290 287 286 286 286 285 281 278 275 272 268 262 258 253 249 247 245 243 243 242 242 241 240 238 238 236 236 235 235
309 306 305 304 303 302 300 297 294 291 288 287 288 288 285 282 278 274 272 268 263 257 252 249 248 245 242 242 243 241 241 240 237 234 234 235 235 236
311 309 308 305 304 302 300 296 293 290 288 287 288 287 286 282 279 276 272 267 262 256 250 249 248 248 246 245 243 242 240 240 237 234 234 235 235 235
315 311 308 306 305 303 299 296 292 290 290 289 288 286 284 281 278 276 272 267 260 255 251 248 246 247 246 243 242 241 240 239 237 234 234 235 235 235
318 314 312 309 306 304 301 298 296 294 293 292 290 287 284 281 278 275 271 266 260 257 253 249 247 247 245 243 243 242 240 239 238 236 236 236 237 236
319 317 315 313 310 309 307 304 302 300 298 294 291 288 284 281 279 276 272 268 263 258 255 252 249 248 245 242 243 244 242 240 238 236 237 238 238 237
323 321 319 318 315 313 310 308 305 303 301 298 294 291 287 282 279 276 273 269 265 260 256 253 249 246 245 244 243 243 243 240 237 236 237 238 239 238
325 324 323 321 319 317 315 312 309 305 302 299 297 295 291 284 279 276 273 269 267 262 257 253 250 248 247 245 244 242 241 240 238 238 238 239 241 240
330 328 327 326 325 323 320 315 312 310 307 302 298 294 290 286 281 276 273 269 266 264 259 255 251 248 247 247 245 242 240 240 240 240 240 241 242 242
334 334 332 332 331 327 324 321 317 314 310 307 301 295 289 287 284 279 275 270 265 262 259 257 253 250 247 245 246 244 242 242 241 241 241 241 242 241
340 340 340 338 336 332 327 324 321 321 318 312 306 300 293 288 285 281 278 272 266 262 260 259 254 250 249 248 246 245 244 243 242 241 240 240 241 242
343 342 341 341 340 337 334 330 327 324 323 319 314 308 299 292 288 284 280 274 270 267 262 259 256 252 249 248 247 245 245 244 244 242 240 240 242 242
345 345 344 344 343 340 336 333 331 327 323 320 318 314 308 298 291 287 282 277 274 271 265 259 256 253 252 251 250 247 245 244 244 244 244 243 244 245
349 348 346 345 344 343 341 337 335 331 327 323 319 314 309 304 297 290 284 281 277 273 266 261 257 255 254 253 251 250 248 246 246 247 247 247 246 246
351 350 349 347 346 345 344 343 340 337 332 328 323 319 313 307 302 293 284 281 279 276 271 265 261 258 256 253 252 250 249 248 247 247 247 246 246 245
353 352 352 351 350 348 346 343 342 341 337 332 328 324 319 314 308 301 292 285 281 278 274 268 264 260 256 254 252 251 250 249 248 247 247 246 245 246
Height
5724 5721 5718 5715 5712 5710 5708 5706 5705 5703 5702 5700 5698 5696 5694 5693 5692 5691 5691 5691 5692 5693 5694 5695 5697 5700 5703 5706 5708 5711 5714 5718 5721 5725 5729 5733 5737 5741
5716 5713 5710 5707 5705 5702 5700 5698 5696 5695 5693 5691 5689 5687 5686 5685 5683 5682 5682 5682 5682 5683 5684 5685 5687 5690 5693 5696 5699 5702 5705 5707 5711 5715 5719 5723 5727 5732
5709 5706 5703 5700 5697 5695 5692 5690 5688 5686 5685 5683 5681 5679 5677 5676 5675 5673 5673 5672 5672 5673 5674 5676 5678 5680 5683 5686 5689 5692 5694 5697 5701 5705 5709 5713 5717 5722
5702 5698 5695 5693 5690 5688 5685 5682 5680 5678 5677 5675 5673 5670 5669 5667 5666 5665 5664 5663 5663 5664 5664 5666 5668 5670 5673 5676 5679 5682 5684 5687 5691 5694 5698 5703 5707 5711
5695 5691 5688 5686 5683 5681 5678 5675 5672 5670 5668 5666 5665 5662 5660 5659 5657 5656 5655 5654 5654 5654 5655 5657 5659 5661 5663 5666 5669 5672 5675 5678 5681 5685 5688 5692 5696 5701
5688 5684 5681 5679 5676 5673 5670 5667 5665 5662 5660 5659 5657 5654 5652 5650 5649 5648 5647 5646 5646 5646 5646 5648 5650 5652 5654 5657 5660 5663 5666 5669 5672 5675 5679 5682 5686 5691
5681 5678 5675 5672 5669 5666 5662 5660 5657 5655 5653 5651 5649 5646 5644 5642 5641 5639 5638 5637 5637 5637 5638 5640 5642 5644 5646 5648 5651 5654 5656 5659 5662 5666 5669 5673 5677 5681
5675 5672 5668 5665 5662 5658 5655 5652 5649 5647 5645 5643 5641 5639 5636 5634 5632 5631 5630 5629 5629 5629 5630 5631 5633 5635 5637 5640 5642 5645 5647 5650 5653 5656 5660 5664 5668 5672
5669 5666 5662 5658 5654 5651 5648 5645 5642 5639 5637 5635 5633 5630 5628 5625 5623 5622 5621 5620 5620 5620 5621 5623 5624 5626 5629 5631 5633 5636 5638 5641 5644 5647 5651 5655 5659 5662
5664 5660 5656 5652 5648 5644 5641 5638 5634 5631 5629 5626 5624 5621 5619 5616 5615 5613 5612 5611 5611 5612 5612 5614 5616 5618 5620 5622 5624 5627 5629 5632 5635 5639 5642 5646 5650 5653
5658 5654 5649 5645 5641 5637 5633 5630 5626 5623 5620 5617 5614 5612 5610 5608 5606 5605 5604 5603 5603 5604 5604 5605 5607 5609 5611 5613 5615 5618 5620 5624 5627 5630 5634 5637 5641 5644
5653 5647 5643 5638 5634 5629 5625 5622 5618 5614 5611 5608 5605 5602 5601 5599 5597 5596 5595 5595 5595 5596 5596 5597 5599 5600 5603 5605 5607 5609 5612 5615 5618 5622 5625 5628 5632 5635
5646 5641 5636 5631 5626 5622 5617 5613 5610 5606 5603 5600 5597 5594 5592 5591 5589 5588 5587 5587 5587 5587 5588 5588 5590 5592 5594 5597 5599 5601 5604 5606 5610 5613 5616 5620 5623 5626
5640 5635 5629 5624 5619 5614 5610 5606 5602 5599 5596 5592 5590 5587 5585 5583 5581 5580 5579 5579 5579 5579 5579 5580 5582 5584 5586 5588 5591 5593 5595 5598 5601 5604 5608 5611 5614 5617
5634 5628 5623 5617 5612 5608 5603 5599 5596 5592 5589 5586 5583 5580 5578 5576 5574 5573 5572 5571 5571 5571 5571 5572 5574 5576 5578 5580 5583 5585 5587 5590 5593 5596 5599 5602 5605 5608
5629 5623 5617 5611 5606 5601 5597 5593 5589 5585 5582 5579 5576 5574 5571 5569 5568 5566 5565 5564 5564 5564 5565 5565 5566 5568 5570 5572 5575 5577 5579 5582 5585 5588 5591 5594 5596 5599
5624 5618 5613 5607 5601 5596 5592 5588 5584 5580 5576 5572 5569 5567 5565 5563 5561 5559 5558 5558 5557 5558 5558 5558 5559 5560 5562 5564 5566 5569 5571 5574 5577 5579 5582 5585 5588 5590
5620 5614 5608 5602 5597 5592 5587 5583 5579 5574 5570 5566 5563 5560 5558 5556 5554 5552 5551 5550 5550 5550 5551 5551 5552 5553 5555 5556 5558 5560 5563 5565 5568 5570 5573 5576 5579 5582
5617 5610 5604 5599 5593 5588 5583 5578 5573 5569 5565 5561 5557 5554 5552 5549 5547 5546 5544 5543 5543 5543 5543 5544 5544 5545 5547 5549 5551 5552 5555 5557 5559 5562 5564 5567 5570 5573
5614 5608 5602 5596 5590 5584 5579 5574 5569 5564 5560 5556 5552 5549 5546 5543 5541 5539 5538 5537 5537 5536 5536 5536 5537 5538 5539 5541 5543 5544 5546 5548 5551 5553 5556 5559 5561 5564
5611 5605 5599 5593 5587 5581 5575 5570 5565 5560 5555 5551 5547 5543 5540 5537 5535 5533 5531 5530 5529 5529 5529 5529 5529 5530 5531 5533 5535 5536 5538 5540 5542 5544 5547 5550 5552 5555
5609 5603 5597 5590 5584 5578 5572 5566 5561 5556 5551 5546 5542 5538 5535 5531 5529 5527 5525 5524 5523 5522 5522 5522 5522 5523 5524 5525 5526 5528 5529 5531 5533 5536 5538 5541 5543 5546
5608 5601 5594 5588 5582 5575 5569 5564 5558 5552 5547 5542 5537 5533 5529 5526 5523 5520 5519 5517 5516 5515 5515 5515 5515 5515 5516 5517 5519 5520 5521 5523 5525 5527 5529 5531 5534 5536